Tracking 30298 objects as of 27-Apr-2025
HD Live streaming from Space Station
objects crossing your sky now

STARLINK-2282

Track STARLINK-2282 now!
10-day predictions
STARLINK-2282 is classified as:


NORAD ID: 48018
Int'l Code: 2021-024AT
Perigee: 448.9 km
Apogee: 458.1 km
Inclination: 53.0 °
Period: 93.5 minutes
Semi major axis: 6824 km
RCS: Unknown
Launch date: March 24, 2021
Source: United States (US)
Launch site: AIR FORCE EASTERN TEST RANGE (AFETR)
Your satellite tracking list
Your tracking list is empty




NASA's NSSDC Master Catalog

Two Line Element Set (TLE):
1 48018U 21024AT  25117.25002315  .00196032  00000-0  47372-2 0  9990
2 48018  53.0308 277.6439 0006797 181.0844 336.1678 15.39913173226900
Source of the keplerian elements: AFSPC